Tracking 22459 objects as of 3-Mar-2021
HD Live streaming from Space Station
objects crossing your sky now

THORAD AGENA D DEB

Track THORAD AGENA D DEB now!
10-day predictions


NORAD ID: 4171
Int'l Code: 1969-082AP
Perigee: 764.5 km
Apogee: 822.6 km
Inclination: 70.1 °
Period: 100.6 minutes
Semi major axis: 7164 km
RCS: 0.0461 m2 (small)
Launch date: September 30, 1969
Source: United States (US)
Launch site: AIR FORCE WESTERN TEST RANGE (AFWTR)

Note: This is SATELLITE DEBRIS
aabbcc
Your satellite tracking list
Your tracking list is empty




NASA's NSSDC Master Catalog

Two Line Element Set (TLE):
1 04171U 69082AP  21060.89139067  .00000163  00000-0  82094-4 0  9997
2 04171  70.0760 238.1467 0040536 301.3226  58.3934 14.31594588662038
Source of the keplerian elements: AFSPC